www.pogodaiklimat.ru

Погода и климат >> Архив погоды >> Индонезия >> Toli-Toli


ПОГОДА в Toli-Toli

  • Прогноз погоды в Toli-Toli
  • Монитор погоды в Toli-Toli
  • Климат города

АРХИВ ПОГОДЫ в Toli-Toli

Время (UTC), дата Ветер
(напр.,м/с)
 
Видим.   Явления Облачность Т
(С)
Тd
(С)
f
(%)
Тe
(С)
Тes
(С)
Комфортность P
(гПа)
Po
(гПа)
Тmin
(С)
Tmax
(С)
R
(мм)
R24
(мм)
S
(см)
18 12.09 В 2 10 км 9/4 600 м
[Sc diur, vesp As op Ci fib]
+23.9 +22.7 93 +31 +31 очень
душно
1008.8 1008.5
21 12.09 штиль 0 10 км 9/4 600 м
[Sc diur, vesp As op Ci fib]
+23.7 +22.9 95 +31 +31 очень
душно
1009.0 1008.8
00 13.09 штиль 0 12 км 9/4 600 м
[Sc As op Ci fib]
+28.4 +24.0 77 +39 +42 очень
душно
1010.6 1010.4 +23.2 12
03 13.09 З 2 9000 м слабый дождь 10/5 600 м
[Sc As op Ci fib]
+28.0 +23.9 78 +39 +44 очень
душно
1010.5 1010.2 0.0
06 13.09 ЮВ 2 10 км смерч (торнадо) {гроза, дождь} 9/5 540 м
[Cb cap As op Ci fib]
+29.6 +23.2 69 +40 +45 очень
душно
1008.3 1008.5 2
09 13.09 В 1 10 км дождь 10/5 600 м
[Sc As op Ci fib]
+26.2 +24.1 88 +36 +37 очень
душно
1009.1 1008.9 15
12 13.09 В 2 10 км в посл. час дождь 10/5 600 м
[Sc As op Ci fib]
+24.6 +23.3 92 +33 +33 очень
душно
1009.3 1009.1 +28.9 0.0
15 13.09 В 2 10 км 10/5 600 м
[Sc As op Ci fib]
+23.8 +22.8 94 +31 +31 очень
душно
1009.5 1009.2
18 13.09 штиль 0 10 км 10/5 600 м
[Sc As op Ci fib]
+23.2 +22.8 98 +32 +32 очень
душно
1008.8 1008.5
21 13.09 штиль 0 10 км 10/5 600 м
[Sc As op Ci fib]
+23.8 +22.5 92 +31 +31 очень
душно
1008.5 1008.3
00 14.09 СВ 2 13 км 10/4 600 м
[Sc As op Ci fib]
+28.8 +24.1 76 +40 +42 очень
душно
1010.7 1010.5 +23.2 15
03 14.09 Ю 3 13 км 10/4 600 м
[Sc As op Ci fib]
+30.8 +24.2 68 +43 +48 опасность
перегрева
1010.0 1009.7
06 14.09 ЮЗ 3 10 км осадки на расстоянии 10/4 570 м
[Cu med, cong As op Ci fib]
+30.0 +24.2 71 +42 +46 опасность
перегрева
1007.8 1007.6
09 14.09 СВ 3 8000 м слабый дождь 10/5 570 м
[Sc As op Ci fib]
+25.6 +24.1 91 +35 +36 очень
душно
1008.4 1008.2 2
12 14.09 В 2 6000 м в посл. час дождь 10/5 540 м
[Sc As op Ci fib]
+24.1 +23.6 97 +33 +33 очень
душно
1010.5 1010.2 +31.0 5
15 14.09 В 2 7000 м 10/5 600 м
[Sc As op Ci fib]
+23.8 +23.5 98 +32 +32 очень
душно
1010.1 1009.8
18 14.09 В 2 8000 м 9/4 600 м
[Sc As op Ci fib]
+23.7 +23.0 96 +31 +31 очень
душно
1008.9 1008.6
21 14.09 В 2 8000 м 8/4 600 м
[Sc As op Ci fib]
+23.7 +22.9 95 +31 +31 очень
душно
1008.7 1008.4
00 15.09 СВ 1 13 км 9/4 600 м
[Sc diur, vesp As op Ci fib]
+27.2 +24.8 87 +39 +41 очень
душно
1010.4 1010.2 +23.2 7
03 15.09 СЗ 3 13 км 8/4 600 м
[Cu med, cong As op Ci fib]
+30.2 +24.8 73 +43 +50 опасность
перегрева
1010.1 1009.9
06 15.09 СЗ 4 12 км слабый дождь 9/5 540 м
[Cu med, cong As op Ci fib]
+30.7 +25.1 72 +44 +48 опасность
перегрева
1006.9 1006.7 0.0
09 15.09 В 4 4000 м гроза, ливневой дождь 10/5 570 м
[Cb cap As op Ci fib]
+25.3 +24.4 95 +35 +36 очень
душно
1008.4 1008.2 5
15 15.09 В 2 10 км 10/5 600 м
[Sc As op Ci fib]
+24.5 +23.4 94 +33 +33 очень
душно
1010.5 1010.2
18 15.09 В 1 10 км 10/5 600 м
[Sc As op Ci fib]
+23.8 +22.5 92 +31 +31 очень
душно
1008.4 1008.2
21 15.09 В 2 10 км 10/5 600 м
[Sc As op Ci fib]
+23.6 +22.6 94 +31 +31 очень
душно
1008.9 1008.6
00 16.09 В 1 13 км 5/3 600 м
[Sc As op Ci fib]
+26.0 +24.5 91 +36 +40 очень
душно
1010.7 1010.4 +23.2 8
03 16.09 СЗ 3 14 км 5/3 600 м
[Sc As op Ci fib]
+30.6 +24.0 68 +42 +54 опасность
перегрева
1010.2 1010.0
06 16.09 СЗ 3 11 км осадки на расстоянии 8/4 570 м
[Cu med, cong As op Ci fib]
+31.0 +24.1 67 +43 +48 опасность
перегрева
1007.3 1007.0
09 16.09 СЗ 2 10 км в посл. час дождь 10/4 570 м
[Sc As op Ci fib]
+28.4 +24.6 80 +40 +41 очень
душно
1007.9 1007.6 2
12 16.09 В 2 10 км {дождь} 6/3 600 м
[Sc diur, vesp As op Ci fib]
+25.6 +24.4 93 +36 +36 очень
душно
1010.1 1009.9 +32.4 2
15 16.09 В 2 10 км 6/3 600 м
[Sc diur, vesp As trans Ci fib]
+24.2 +23.5 96 +33 +33 очень
душно
1011.4 1011.1
18 16.09 В 2 10 км 4/3 600 м
[Sc diur, vesp As trans Ci fib]
+24.1 +23.4 96 +32 +32 очень
душно
1010.0 1009.8
21 16.09 В 2 10 км 4/3 600 м
[Sc diur, vesp As trans Ci fib]
+23.7 +22.8 95 +31 +31 очень
душно
1009.7 1009.4
00 17.09 штиль 0 12 км 3/1 600 м
[Sc As trans Ci fib]
+29.5 +23.7 71 +40 +47 очень
душно
1011.4 1011.2 +23.4 2
03 17.09 СЗ 2 12 км 4/1 600 м
[Sc As op Ci fib]
+30.8 +25.4 73 +45 +60 опасность
перегрева
1010.9 1010.6
06 17.09 З 2 10 км в посл. час дождь 10/5 540 м
[Sc As op Ci fib]
+28.4 +24.8 81 +41 +45 опасность
перегрева
1008.5 1008.2 0.0
12 17.09 В 2 10 км в посл. час дождь 10/5 600 м
[Sc As op Ci fib]
+25.8 +23.4 87 +35 +35 очень
душно
1011.3 1011.1 +31.8 0.0
15 17.09 В 1 10 км 10/5 600 м
[Sc As op Ci fib]
+24.6 +23.2 92 +33 +33 очень
душно
1011.4 1011.1
18 17.09 штиль 0 10 км 10/5 600 м
[Sc As op Ci fib]
+24.0 +23.0 94 +32 +32 очень
душно
1009.7 1010.0
21 17.09 штиль 0 10 км 10/5 600 м
[Sc As op Ci fib]
+23.6 +22.6 94 +31 +31 очень
душно
1010.3 1010.0
00 18.09 штиль 0 13 км 9/4 600 м
[Sc As op Ci fib]
+27.6 +23.8 80 +38 +41 очень
душно
1012.3 1012.0 +23.2 0.0
03 18.09 СЗ 3 13 км 8/4 600 м
[Sc As op Ci fib]
+30.2 +23.2 66 +40 +48 очень
душно
1011.3 1011.0
06 18.09 СЗ 4 13 км 8/4 600 м
[Cu med, cong As op Ci fib]
+31.4 +25.2 70 +45 +50 опасность
перегрева
1008.8 1008.5
09 18.09 З 3 13 км 9/4 600 м
[Cu med, cong As op Ci fib]
+29.6 +25.0 76 +42 +43 опасность
перегрева
1008.8 1008.5
12 18.09 В 2 8000 м 9/4 600 м
[Sc As op Ci fib]
+25.5 +23.2 87 +34 +34 очень
душно
1010.7 1010.4 +31.4
15 18.09 СВ 3 8000 м 8/4 600 м
[Sc As op Ci fib]
+24.8 +22.5 87 +32 +32 очень
душно
1011.6 1011.3
18 18.09 В 2 8000 м 6/3 600 м
[Sc As op Ci fib]
+24.1 +21.3 84 +30 +30 очень
душно
1009.6 1009.3
21 18.09 В 1 8000 м 6/3 600 м
[Sc As op Ci fib]
+23.5 +20.8 85 +29 +29 душно 1010.0 1009.7
00 19.09 В 2 14 км 6/4 600 м
[Sc diur, vesp As op Ci fib]
+27.9 +22.8 74 +37 +40 очень
душно
1011.8 1011.5 +22.9
03 19.09 З 3 14 км 6/4 600 м
[Sc diur, vesp As op Ci fib]
+32.0 +24.3 64 +44 +54 опасность
перегрева
1010.6 1010.3
06 19.09 СЗ 2 13 км 6/4 600 м
[Cu med, cong As op Ci fib]
+31.6 +24.5 66 +44 +52 опасность
перегрева
1007.9 1007.6
09 19.09 СЗ 3 13 км 6/3 600 м
[Sc As op Ci fib]
+31.0 +24.1 67 +43 +44 опасность
перегрева
1007.4 1007.2
12 19.09 СВ 2 8000 м 6/4 600 м
[Sc As op Ci fib]
+27.4 +24.8 86 +39 +39 очень
душно
1009.6 1009.3 +32.2

 

Местоположение метеостанции Toli-Toli (Индонезия): широта 1.02 долгота 120.80 высота над уровнем моря 2 м.

В архиве по умолчанию представлена погода в Toli-Toli за последнюю неделю. Архивные данные за месяц целиком и за предыдущие месяцы, начиная с января 2011 года, Вы можете получить, выбрав интересующий диапазон дат из раскрывающегося списка и нажав кнопку "Ввод!".

Внимание! Время в таблицах - всемирное. Для получения местного времени необходимо прибавить поправку, которая в Toli-Toli равна 8 ч.

Смотрите также архив погоды в соседних городах и на ближайших метеорологических станциях:

Погода в Palu (Индонезия) (223 км)
Погода в Gorontalo (Индонезия) (257 км)
Погода в Poso (Индонезия) (267 км)
Погода в Luwuk (Индонезия) (307 км)
Погода в Tanjung Redep (Индонезия) (392 км)
Погода в Masamba (Индонезия) (400 км)
Погода в Tanjung Selor (Индонезия) (436 км)
Погода в Majene (Индонезия) (440 км)
Погода в Tarakan (Индонезия) (442 км)
Погода в Samarinda (Индонезия) (445 км)

Пояснения к столбцам:

Ветер - указаны скорость ветра в м/с - средняя за 10 мин, порывы в срок и между сроками (в фигурных скобках) и направление, откуда дует ветер: С - северный, СВ - северо-восточный, В - восточный, ЮВ - юго-восточный, Ю - южный, ЮЗ - юго-западный, З - западный, СЗ - северо-западный.
Видимость - горизонтальная дальность видимости в метрах или километрах. При видимости от 1 до 10 км при отсутствии осадков обычно наблюдается дымка, при ухудшении видимости до 1 км и менее - туман. В сухую погоду видимость может ухудшаться дымом, пылью или мглою.
Явления - указаны атмосферные явления, наблюдавшиеся в срок или в последний час перед сроком; фигурными скобками обозначены явления, наблюдавшиеся между сроками (за 1-3 часа до срока); квадратными скобками обозначены град или гололедные отложения с указанием их диаметра в мм.
Облачность - указаны через наклонную черту общая и нижняя облачность в баллах и высота нижней границы облаков в метрах; квадратными скобками обозначены формы облаков: Ci - перистые, Cs - перисто-слоистые, Cc - перисто-кучевые, Ac - высококучевые, As - высокослоистые, Sc - слоисто-кучевые, Ns - слоисто-дождевые, Cu - кучевые, Cb - кучево-дождевые. Подробнее классификацию облаков см. в Атласе облаков (PDF).
T - Температура воздуха - температура, измеренная на высоте 2 м над землей.
Td - Температура точки росы - температура, при понижении до которой содержащийся в воздухе водяной пар достигнет насыщения.
f - Относительная влажность воздуха - влажноcть воздуха, измеренная на высоте 2 м над землей.
Te - Эффективная температура - температура, которую ощущает одетый по сезону человек в тени. Характеристика душности погоды. При расчете учитывается влияние влажности воздуха и скорости ветра на теплоощущения человека.
Tes - Эффективная температура на солнце - температура, которую ощущает человек, с поправкой на солнечный нагрев. Характеристика знойности погоды. Зависит от высоты солнца над горизонтом, облачности и скорости ветра. Ночью, в пасмурную погоду, а также при ветре 12 м/с и более поправка равна нулю.
P - Атмосферное давление - приведенное к уровню моря атмосферное давление.
Po - Атмосферное давление - измеренное на уровне метеостанции атмосферное давление.
Tmin - Минимальная температура - минимум температуры воздуха на высоте 2 м над землей.
Tmax - Максимальная температура - максимум температуры воздуха на высоте 2 м над землей.
R - Количество осадков - Количество выпавших осадков за период времени, мм. При наведении курсора мыши на число - период времени, за который выпало указанное количество осадков.
R24 - Количество осадков - Количество выпавших осадков за 24 часа, мм.
S - Снежный покров - Высота снежного покрова, см. При наведении курсора мыши на число - состояние снежного покрова и степень покрытия местности в баллах.